Weather in Ordubad

Azerbaijan     38°54′21″N   46°01′21″E
В апреле 2022 года жителям России запретили посещать сайт meteo.paraplan.net по решению Генеральной прокуратуры. Аудитория сайта уменьшилась в 10 раз. Владельцы сайта не видят смысла в поддержке погодного сервера в таких условиях. Сайт будет закрыт в октябре.
temp.,
°C
wind,
m/s
gust,
m/s
humid.,
%
clouds,
%
prec.,
mm/h
press.,
hPa
HPBL,
m
3 october, mon
mon301:00+13e233810 0.0 101236
04:00+13ene1240100 0.0 101120
07:00+12nne014384 0.0 101113
10:00+19wsw222998 0.0 1011428
13:00+22w342294 0.0 10101301
16:00+23w221518 0.0 10091523
19:00+17e444298 0.0 101173
22:00+15e56560 0.0 1014134
4 october, tue
tue401:00+14e56570 0.0 1015112
04:00+13e44530 0.0 101579
07:00+12e23610 0.0 101645
10:00+18s22360 0.0 1016483
13:00+22ssw22210 0.0 10151186
16:00+24ssw22170 0.0 10141610
19:00+19e33300 0.0 101631
22:00+17e23380 0.0 101838
5 october, wed
wed501:00+15e12380 0.0 101920
04:00+14nnw22340 0.0 102012
07:00+13n22320 0.0 102112
10:00+20wsw22220 0.0 1021696
13:00+23wsw33170 0.0 10191511
16:00+24wsw22131 0.0 10181758
19:00+18e22190 0.0 101911
22:00+17ene44330 0.0 102154
6 october, thu
thu601:00+16ene44380 0.0 102156
04:00+15e34390 0.0 102044
07:00+14e33480 0.0 102037
10:00+19se33370 0.0 1019612
13:00+23sse33250 0.0 10171287
16:00+23se43220 0.0 10151416
19:00+16e55570 0.0 1017131
22:00+14e56611 0.0 1019156
7 october, fri
fri701:00+12e67684 0.0 1020168
04:00+11ene56767 0.0 1020146
07:00+10e56767 0.0 1021134
10:00+15ese55551 0.0 1020574
13:00+19se65430 0.0 1019886
16:00+18ese66450 0.0 1017723
19:00+13e67718 0.0 1020265
22:00+11e577229 0.0 1021209